When you browse on this site, cookies collect data to enhance your experience and personalize the content and advertising you see.
Visit our Privacy Policy to learn more. By continuing to use the site, you agree to this use of cookies and data.
  • In Hungary
  • List of Countries
  • For 7 days
  • Water Temperature
  • Satellite Maps
  • Weather Map
  • News
  • Weather Widgets
  • user-avatar
    Login

    Hourly Weather Chomentowek

    Today, 22 May, Wednesday

    Time Temperature Precipitation Wind Pressure Humidity
    00:00 +12°C° 0.2 mm 3 mps 728 mmHg 96%
    01:00 +12°C° 0.2 mm 3 mps 728 mmHg 96%
    02:00 +12°C° 0.3 mm 3 mps 728 mmHg 97%
    03:00 +13°C° 0.3 mm 2 mps 728 mmHg 97%
    04:00 +13°C° 0.3 mm 2 mps 728 mmHg 97%
    05:00 +13°C° 0.2 mm 2 mps 728 mmHg 96%
    06:00 +13°C° 0.2 mm 2 mps 728 mmHg 95%
    07:00 +12°C° 0.2 mm 3 mps 729 mmHg 94%
    08:00 +12°C° 0.4 mm 3 mps 729 mmHg 94%
    09:00 +12°C° 0.4 mm 3 mps 729 mmHg 94%
    10:00 +12°C° 0.4 mm 3 mps 729 mmHg 93%
    11:00 +13°C° 0.1 mm 3 mps 729 mmHg 91%
    12:00 +14°C° 0.1 mm 3 mps 729 mmHg 88%
    13:00 +16°C° 0.1 mm 3 mps 730 mmHg 85%
    14:00 +17°C° 0.3 mm 3 mps 730 mmHg 83%
    15:00 +17°C° 0.3 mm 3 mps 730 mmHg 82%
    16:00 +18°C° 0.3 mm 3 mps 730 mmHg 80%
    17:00 +17°C° 0.9 mm 3 mps 730 mmHg 83%
    18:00 +16°C° 0.9 mm 3 mps 730 mmHg 87%
    19:00 +15°C° 0.9 mm 2 mps 730 mmHg 90%
    20:00 +15°C° 0.5 mm 2 mps 731 mmHg 92%
    21:00 +13°C° 0.5 mm 3 mps 731 mmHg 94%
    22:00 +12°C° 0.5 mm 3 mps 731 mmHg 95%
    23:00 +12°C° 0.5 mm 3 mps 732 mmHg 96%

    Tomorrow, 23 May, Thursday

    Time Temperature Precipitation Wind Pressure Humidity
    00:00 +12°C° 0.5 mm 4 mps 732 mmHg 96%
    01:00 +12°C° 0.5 mm 4 mps 732 mmHg 97%
    02:00 +12°C° 0.2 mm 4 mps 732 mmHg 96%
    03:00 +13°C° 0.2 mm 4 mps 733 mmHg 96%
    04:00 +13°C° 0.2 mm 4 mps 733 mmHg 96%
    05:00 +14°C° 0.1 mm 4 mps 733 mmHg 94%
    06:00 +14°C° 0.1 mm 5 mps 733 mmHg 93%
    07:00 +14°C° 0.1 mm 5 mps 734 mmHg 92%
    08:00 +15°C° 0.4 mm 5 mps 734 mmHg 91%
    09:00 +15°C° 0.4 mm 5 mps 735 mmHg 90%
    10:00 +15°C° 0.4 mm 5 mps 735 mmHg 89%
    11:00 +15°C° 0.4 mm 6 mps 735 mmHg 89%
    12:00 +15°C° 0.4 mm 7 mps 735 mmHg 89%
    13:00 +15°C° 0.4 mm 8 mps 735 mmHg 89%
    14:00 +14°C° 0.2 mm 7 mps 735 mmHg 89%
    15:00 +14°C° 0.2 mm 7 mps 736 mmHg 90%
    16:00 +12°C° 0.2 mm 7 mps 736 mmHg 91%
    17:00 +12°C° 0.1 mm 7 mps 736 mmHg 91%
    18:00 +13°C° 0.1 mm 6 mps 736 mmHg 91%
    19:00 +11°C° 0.1 mm 6 mps 736 mmHg 92%
    20:00 +11°C° 0.1 mm 6 mps 736 mmHg 91%
    21:00 +12°C° 0.1 mm 5 mps 737 mmHg 91%
    22:00 +12°C° 0.1 mm 5 mps 737 mmHg 91%
    23:00 +12°C° 0.2 mm 5 mps 737 mmHg 91%

    Day after tomorrow, 24 May, Friday

    Time Temperature Precipitation Wind Pressure Humidity
    00:00 +10°C° 0.2 mm 5 mps 737 mmHg 91%
    01:00 +11°C° 0.2 mm 4 mps 737 mmHg 91%
    02:00 +11°C° 0.3 mm 4 mps 737 mmHg 90%
    03:00 +10°C° 0.3 mm 4 mps 737 mmHg 90%
    04:00 +10°C° 0.3 mm 4 mps 737 mmHg 89%
    05:00 +10°C° 0.1 mm 4 mps 737 mmHg 85%
    06:00 +10°C° 0.1 mm 4 mps 737 mmHg 81%
    07:00 +10°C° 0.1 mm 4 mps 737 mmHg 78%
    08:00 +12°C° 0 mm 4 mps 738 mmHg 71%
    09:00 +13°C° 0 mm 4 mps 738 mmHg 65%
    10:00 +15°C° 0 mm 4 mps 738 mmHg 59%
    11:00 +17°C° 0 mm 4 mps 737 mmHg 57%
    12:00 +18°C° 0 mm 4 mps 737 mmHg 55%
    13:00 +19°C° 0 mm 4 mps 737 mmHg 53%
    14:00 +19°C° 0 mm 4 mps 737 mmHg 54%
    15:00 +19°C° 0 mm 4 mps 736 mmHg 55%
    16:00 +19°C° 0 mm 4 mps 736 mmHg 56%
    17:00 +18°C° 0 mm 3 mps 736 mmHg 63%
    18:00 +16°C° 0 mm 3 mps 736 mmHg 70%
    19:00 +15°C° 0 mm 2 mps 735 mmHg 77%
    20:00 +14°C° 0 mm 2 mps 736 mmHg 81%
    21:00 +13°C° 0 mm 2 mps 736 mmHg 85%
    22:00 +12°C° 0 mm 2 mps 736 mmHg 89%
    23:00 +12°C° 0 mm 2 mps 736 mmHg 90%

    25 May, Saturday

    Time Temperature Precipitation Wind Pressure Humidity
    00:00 +12°C° 0 mm 2 mps 736 mmHg 90%
    01:00 +12°C° 0 mm 2 mps 736 mmHg 91%
    02:00 +10°C° 0 mm 2 mps 736 mmHg 91%
    03:00 +10°C° 0 mm 2 mps 736 mmHg 91%
    04:00 +10°C° 0 mm 2 mps 735 mmHg 92%
    05:00 +12°C° 0 mm 3 mps 735 mmHg 87%
    06:00 +13°C° 0 mm 3 mps 736 mmHg 81%
    07:00 +16°C° 0 mm 3 mps 736 mmHg 76%
    08:00 +17°C° 0.5 mm 4 mps 736 mmHg 75%
    09:00 +18°C° 0.5 mm 4 mps 736 mmHg 73%
    10:00 +19°C° 0.5 mm 5 mps 736 mmHg 71%
    11:00 +20°C° 0.5 mm 5 mps 735 mmHg 69%
    12:00 +20°C° 0.5 mm 5 mps 735 mmHg 66%
    13:00 +20°C° 0.5 mm 5 mps 735 mmHg 63%
    14:00 +20°C° 0.1 mm 5 mps 735 mmHg 63%
    15:00 +20°C° 0.1 mm 5 mps 735 mmHg 62%
    16:00 +20°C° 0.1 mm 5 mps 735 mmHg 62%
    17:00 +18°C° 0 mm 4 mps 735 mmHg 67%
    18:00 +17°C° 0 mm 4 mps 735 mmHg 73%
    19:00 +14°C° 0 mm 3 mps 735 mmHg 78%
    20:00 +14°C° 0 mm 2 mps 735 mmHg 82%
    21:00 +13°C° 0 mm 2 mps 736 mmHg 87%
    22:00 +10°C° 0 mm 2 mps 736 mmHg 91%
    23:00 +10°C° 0 mm 2 mps 736 mmHg 91%

    26 May, Sunday

    Time Temperature Precipitation Wind Pressure Humidity
    00:00 +10°C° 0 mm 2 mps 736 mmHg 91%
    01:00 +10°C° 0 mm 1 mps 736 mmHg 92%
    02:00 +10°C° 0 mm 2 mps 736 mmHg 91%
    03:00 +10°C° 0 mm 2 mps 736 mmHg 90%
    04:00 +10°C° 0 mm 2 mps 736 mmHg 89%
    05:00 +11°C° 0 mm 3 mps 735 mmHg 83%
    06:00 +12°C° 0 mm 4 mps 735 mmHg 78%
    07:00 +13°C° 0 mm 5 mps 735 mmHg 73%
    08:00 +13°C° 0 mm 5 mps 735 mmHg 72%
    09:00 +14°C° 0 mm 6 mps 735 mmHg 70%
    10:00 +14°C° 0 mm 6 mps 735 mmHg 69%
    11:00 +15°C° 0 mm 6 mps 735 mmHg 64%
    12:00 +16°C° 0 mm 6 mps 735 mmHg 60%
    13:00 +17°C° 0 mm 7 mps 734 mmHg 55%
    14:00 +17°C° 0 mm 7 mps 734 mmHg 57%
    15:00 +17°C° 0 mm 6 mps 734 mmHg 59%
    16:00 +17°C° 0 mm 6 mps 734 mmHg 61%
    17:00 +16°C° 0 mm 5 mps 734 mmHg 67%
    18:00 +14°C° 0 mm 4 mps 734 mmHg 73%
    19:00 +13°C° 0 mm 3 mps 734 mmHg 79%
    20:00 +13°C° 0 mm 3 mps 734 mmHg 80%
    21:00 +12°C° 0 mm 3 mps 735 mmHg 80%
    22:00 +12°C° 0 mm 3 mps 735 mmHg 81%
    23:00 +12°C° 0 mm 3 mps 735 mmHg 81%

    27 May, Monday

    Time Temperature Precipitation Wind Pressure Humidity
    00:00 +12°C° 0 mm 4 mps 735 mmHg 82%
    01:00 +12°C° 0 mm 4 mps 735 mmHg 82%
    02:00 +11°C° 0 mm 4 mps 735 mmHg 85%
    03:00 +11°C° 0 mm 4 mps 735 mmHg 88%
    04:00 +10°C° 0 mm 4 mps 735 mmHg 91%
    05:00 +12°C° 0 mm 4 mps 736 mmHg 88%
    06:00 +13°C° 0 mm 4 mps 736 mmHg 84%
    07:00 +14°C° 0 mm 5 mps 736 mmHg 81%
    08:00 +15°C° 0.1 mm 4 mps 736 mmHg 77%
    09:00 +18°C° 0.1 mm 4 mps 736 mmHg 74%
    10:00 +19°C° 0.1 mm 4 mps 736 mmHg 70%
    11:00 +20°C° 0.1 mm 4 mps 736 mmHg 67%
    12:00 +21°C° 0.1 mm 5 mps 735 mmHg 64%
    13:00 +22°C° 0.1 mm 5 mps 735 mmHg 61%
    14:00 +21°C° 0.7 mm 4 mps 735 mmHg 67%
    15:00 +21°C° 0.7 mm 4 mps 734 mmHg 73%
    16:00 +20°C° 0.7 mm 3 mps 734 mmHg 79%
    17:00 +19°C° 0.5 mm 3 mps 734 mmHg 81%
    18:00 +19°C° 0.5 mm 3 mps 734 mmHg 84%
    19:00 +18°C° 0.5 mm 2 mps 734 mmHg 86%
    20:00 +17°C° 0.1 mm 2 mps 734 mmHg 88%
    21:00 +16°C° 0.1 mm 2 mps 735 mmHg 90%
    22:00 +15°C° 0.1 mm 2 mps 735 mmHg 92%
    23:00 +14°C° 0 mm 2 mps 735 mmHg 93%
    Show more